Temperature
24 25 26 27 27 27 25 23 23 23 23 23 22 23 23 23 24 23 23 22 22 22 22 21 21 20 20 19 19 19 18 18 18 18 17 17 17 17 17 16 16 16 16 16
24 25 26 27 27 27 26 26 24 24 23 23 23 23 23 23 23 22 22 22 22 22 22 21 21 20 20 19 19 19 18 18 18 17 17 17 17 17 16 16 16 16 16 16
21 23 25 25 26 27 26 26 25 24 23 22 22 22 22 23 23 23 22 22 22 22 22 21 21 20 20 19 19 18 18 18 17 17 17 17 17 16 16 16 16 16 16 15
20 22 24 23 24 26 26 25 24 24 23 22 22 23 23 24 23 23 23 22 22 22 22 21 21 20 20 19 19 18 18 17 17 17 17 16 16 16 16 16 15 15 15 15
18 21 22 24 25 25 24 23 23 23 22 22 22 22 22 23 23 23 22 22 22 22 21 21 20 20 19 19 18 18 17 17 17 17 16 16 16 16 16 15 15 15 15 15
18 21 22 22 24 26 24 22 23 22 21 21 22 20 20 22 23 22 22 22 21 21 21 20 20 19 19 18 18 18 17 17 17 16 16 16 16 16 15 15 15 14 14 14
19 20 21 22 24 25 23 21 22 23 22 22 21 22 22 22 22 22 21 21 21 21 20 20 19 19 18 18 18 17 17 17 16 16 16 16 15 15 15 15 14 14 14 14
17 19 20 22 23 22 21 22 23 22 22 22 22 21 21 21 21 21 21 20 20 20 20 19 19 18 18 18 17 17 17 16 16 16 15 15 15 15 15 14 14 14 14 13
17 18 19 21 22 23 23 22 22 22 22 22 21 20 20 20 20 20 20 20 19 19 19 18 18 18 18 17 17 17 16 16 16 15 15 15 15 15 14 14 14 14 13 13
17 18 19 21 22 22 23 23 23 22 22 21 20 20 19 19 19 19 19 19 19 19 18 18 18 17 17 17 16 16 16 16 15 15 15 14 14 14 14 14 14 13 13 13
16 17 19 20 21 21 22 22 21 21 21 21 20 20 19 19 19 19 18 18 18 18 18 17 17 17 16 16 16 16 15 15 15 14 14 14 14 14 13 13 13 13 13 13
16 17 17 18 20 21 21 20 20 20 20 20 20 19 19 19 18 18 18 18 17 17 17 16 16 16 16 15 15 15 15 15 14 14 14 14 13 13 13 13 13 12 12 12
18 19 19 19 19 20 20 20 20 20 20 19 19 19 19 18 18 18 17 17 17 16 16 16 15 15 15 15 15 14 14 14 14 14 14 13 13 13 13 12 12 12 12 12
18 18 18 18 19 19 19 19 19 19 19 19 18 18 18 18 17 17 17 16 16 16 15 15 15 15 14 14 14 14 14 14 13 13 13 13 13 12 12 12 12 12 11 11
18 18 18 18 18 18 18 18 18 18 18 18 18 17 17 17 17 16 16 16 15 15 15 15 14 14 14 14 14 14 13 13 13 13 13 12 12 12 12 12 11 11 11 11
17 17 17 17 17 17 17 18 17 17 17 17 17 17 17 16 16 16 15 15 15 15 14 14 14 14 14 13 13 13 13 13 13 12 12 12 12 12 11 11 11 11 11 10
17 16 17 17 17 17 17 17 17 16 16 16 16 16 16 16 15 15 15 14 14 14 14 14 13 13 13 13 13 13 13 12 12 12 12 12 12 11 11 11 11 10 10 10
17 17 17 17 17 16 16 16 16 16 16 16 16 16 15 15 15 14 14 14 13 13 13 13 13 13 12 12 12 12 12 12 12 12 12 11 11 11 11 11 10 10 10 10
16 16 16 16 16 16 15 15 15 15 15 15 15 15 15 14 14 14 13 13 13 13 12 12 12 12 12 12 12 12 12 12 11 11 11 11 11 11 11 10 10 10 10 10
16 16 16 15 15 15 15 15 15 15 15 15 14 14 14 13 13 13 13 13 12 12 12 12 12 12 12 11 11 11 11 11 11 11 11 11 11 11 10 10 10 10 10 9
15 15 15 15 15 15 15 15 14 14 14 14 14 14 13 13 13 12 12 12 12 12 12 11 11 11 11 11 11 11 11 11 11 11 11 11 10 10 10 10 10 10 9 9
15 15 15 15 15 14 14 14 14 14 14 13 13 13 12 12 12 12 12 12 12 11 11 11 11 11 11 11 11 11 11 11 11 11 11 10 10 10 10 10 9 9 9 9
14 14 14 14 14 14 14 14 13 13 13 13 13 12 12 12 12 12 12 11 11 11 11 11 11 11 11 11 11 11 11 11 11 10 10 10 10 10 10 9 9 9 9 9
14 14 14 14 14 14 13 13 13 13 13 12 12 12 12 12 12 11 11 11 11 11 11 10 10 10 10 10 10 10 10 10 10 10 10 10 10 9 9 9 9 9 8 8
13 13 13 13 13 13 13 13 12 12 12 12 12 12 12 12 11 11 11 11 11 11 10 10 10 10 10 10 10 10 10 10 10 10 10 10 9 9 9 9 9 8 8 8
13 13 13 13 13 12 12 12 12 12 12 12 12 11 11 11 11 11 11 11 11 10 10 10 10 10 10 10 10 10 10 10 10 10 9 9 9 9 9 8 8 8 8 8
12 12 12 12 12 12 12 12 12 12 12 12 11 11 11 11 11 11 11 11 10 10 10 10 10 10 10 10 10 10 10 10 10 9 9 9 9 9 8 8 8 8 8 7
Wind_Speed
5 5 3 4 5 3 3 8 9 9 11 14 14 14 12 10 10 10 10 9 10 9 7 7 6 6 6 5 4 5 5 5 4 3 3 3 3 2 2 2 3 2 3 3
3 4 4 4 4 3 3 4 6 8 7 9 9 8 9 10 11 11 10 10 9 9 8 7 7 6 6 5 4 5 5 4 4 3 3 3 3 2 2 2 2 3 3 3
3 5 4 5 5 3 3 4 8 8 8 10 10 11 12 12 12 11 11 10 10 9 9 8 7 7 7 5 5 5 4 4 3 3 3 2 2 3 2 2 2 3 2 3
1 3 4 9 5 2 3 2 4 6 8 12 13 11 9 10 12 11 10 9 9 8 8 7 6 7 7 6 6 5 4 3 2 3 3 2 2 3 2 2 2 2 2 2
3 2 5 8 4 2 4 1 4 9 9 10 11 9 5 4 9 10 9 9 8 8 8 7 7 7 7 6 6 5 4 3 2 3 3 2 2 2 2 2 2 2 2 2
4 3 5 7 6 1 7 0 2 10 12 11 10 7 5 6 9 9 9 8 8 8 8 8 7 8 8 6 5 4 3 3 2 3 3 3 2 2 2 3 3 2 2 2
4 4 6 7 6 2 4 6 4 7 11 11 7 7 9 10 10 10 10 9 9 10 8 7 7 8 8 6 4 3 3 3 3 3 4 4 3 4 3 3 3 2 2 2
4 4 7 6 2 2 6 4 4 6 8 8 9 10 10 10 10 10 10 9 9 9 7 6 7 8 7 5 3 4 4 4 4 4 4 4 5 4 4 4 3 2 2 2
6 6 6 3 1 3 6 8 6 7 9 13 13 10 10 9 10 10 9 8 8 9 8 6 5 7 7 4 4 5 5 4 5 5 4 4 5 4 3 2 2 1 1 1
1 2 2 3 3 3 5 7 7 10 13 14 13 11 11 10 9 9 7 8 7 9 8 6 5 5 5 4 5 5 5 4 4 5 5 5 4 3 3 2 1 1 1 1
1 1 3 4 2 4 5 8 10 10 11 12 14 12 11 10 9 9 8 6 7 8 7 6 5 5 4 4 5 5 4 4 4 4 5 5 4 3 2 1 1 2 2 2
5 5 3 2 1 5 8 9 10 10 9 9 11 11 10 9 8 8 8 7 7 7 7 6 5 4 3 4 5 5 4 3 3 3 3 4 4 4 7 5 5 4 2 2
4 3 3 1 1 5 8 9 10 11 12 11 9 10 10 8 7 8 8 8 8 7 6 6 5 5 4 4 4 5 4 3 3 3 3 3 3 3 2 3 6 7 6 4
3 3 3 1 2 5 8 10 10 10 9 10 10 10 9 9 8 8 7 7 7 7 6 6 6 4 2 3 4 4 3 3 3 3 3 4 4 3 3 3 2 2 4 5
1 3 4 4 5 6 8 11 11 10 9 9 9 9 10 9 9 8 7 7 7 7 6 6 5 3 2 3 3 3 2 2 2 2 3 3 3 3 3 3 3 2 1 2
2 4 5 7 7 6 9 11 11 9 9 9 8 8 9 9 8 8 7 7 7 6 5 5 3 1 2 3 3 2 1 2 3 2 2 3 3 3 3 3 3 2 1 1
4 4 5 6 5 6 7 8 9 9 9 9 9 9 9 10 8 7 6 5 6 5 5 4 2 1 2 2 2 2 2 1 2 2 2 3 3 3 3 3 3 3 2 2
5 4 5 7 9 9 7 6 7 9 9 9 8 9 9 9 8 6 5 5 6 5 3 2 1 1 2 2 2 1 2 1 2 2 2 2 2 3 3 3 4 3 2 1
7 7 6 7 10 9 7 6 6 7 8 8 9 8 7 7 7 6 5 6 6 4 0 0 2 3 2 1 2 2 2 2 2 2 2 2 2 2 3 3 3 2 2 2
8 8 8 8 9 9 8 7 7 6 6 8 9 8 7 6 6 6 5 4 2 2 2 1 2 2 1 1 1 2 2 2 2 2 2 2 2 3 3 3 3 3 2 2
8 8 8 8 8 8 8 8 8 8 8 8 8 8 7 5 5 5 5 3 1 1 2 3 2 1 1 0 1 2 2 3 3 3 3 3 3 3 3 3 3 2 2 2
5 7 7 7 8 7 6 6 6 7 8 7 6 7 7 6 5 4 3 3 3 2 2 2 1 1 1 1 1 2 2 3 3 2 3 3 3 3 3 3 2 2 2 2
4 5 7 7 7 6 6 6 6 6 6 6 6 6 6 5 4 5 3 2 2 3 2 1 1 1 2 2 2 2 2 3 3 3 3 3 3 3 3 3 2 2 2 2
5 5 5 6 7 7 6 5 5 5 5 5 5 6 6 5 3 2 3 4 4 4 2 2 1 2 3 2 2 2 2 2 2 2 3 3 3 3 2 2 2 2 2 2
5 5 5 6 6 4 4 4 5 4 5 4 4 4 4 4 4 3 3 3 4 3 2 2 2 2 2 2 2 2 2 2 3 3 3 3 2 2 2 2 2 2 2 2
4 4 3 3 3 3 3 4 3 3 4 4 3 3 3 3 3 3 3 3 4 3 2 1 2 2 2 2 2 2 2 2 3 3 3 3 3 3 2 2 2 2 2 2
4 3 3 2 2 2 2 3 3 3 4 4 3 2 3 3 3 3 4 3 3 2 2 2 2 2 2 2 2 2 2 2 2 3 3 3 3 3 3 3 2 2 2 2
Wind_Direction
213 235 252 259 272 260 187 181 175 199 182 192 185 176 174 166 154 147 149 152 157 159 160 157 152 150 150 149 147 142 137 138 153 157 153 139 126 125 120 117 112 102 83 68
338 331 344 309 280 259 233 186 168 159 198 200 174 156 155 156 149 149 151 159 160 157 154 154 155 155 148 147 150 142 145 153 156 145 134 133 140 130 114 109 105 101 97 89
295 322 15 298 255 239 231 184 157 174 196 161 154 161 164 159 155 155 157 157 158 158 158 159 156 149 146 143 128 123 133 144 148 144 140 148 142 124 128 125 103 105 104 98
116 33 233 247 256 189 151 175 149 147 155 159 158 157 150 149 151 155 154 153 154 153 150 151 146 138 134 130 129 127 123 117 123 132 131 121 113 122 132 125 112 108 101 101
129 186 273 292 295 154 131 304 132 131 135 133 125 100 87 134 143 146 146 145 146 146 140 135 135 134 128 127 129 131 130 124 126 132 126 118 121 135 140 121 101 102 102 104
144 165 226 256 283 201 109 152 198 139 140 144 127 134 182 163 135 132 131 132 132 128 119 124 133 128 124 129 131 143 151 142 140 133 132 135 133 120 111 115 112 110 92 93
173 204 250 265 289 47 125 210 222 155 151 152 159 168 161 145 136 134 131 130 127 122 121 129 134 129 126 128 142 155 138 127 130 132 128 121 102 91 94 98 94 90 88 65
158 190 249 290 1 153 197 177 160 135 138 125 112 114 123 129 129 125 123 125 125 123 122 122 125 128 130 140 144 120 111 111 107 106 115 111 101 95 91 95 92 88 83 60
182 209 245 292 243 213 148 137 143 135 130 120 114 121 126 128 125 118 121 124 121 122 120 116 123 130 134 144 128 116 107 103 104 98 90 100 108 109 100 103 118 120 106 97
100 285 311 5 56 56 116 129 133 132 131 126 120 122 122 125 120 114 112 118 116 116 117 115 113 115 126 128 121 116 117 114 111 101 89 81 84 94 102 105 117 120 125 146
176 255 26 13 61 84 81 98 106 114 123 128 125 126 129 126 123 119 116 110 112 116 119 120 113 106 111 120 120 116 115 116 116 115 114 97 78 63 78 78 173 177 181 165
224 220 165 240 247 106 111 120 123 118 109 116 123 125 126 126 125 124 122 118 114 115 118 116 112 109 109 116 119 121 119 120 129 130 124 120 111 78 48 50 45 55 77 139
216 208 156 168 121 112 123 127 125 124 124 118 114 119 124 125 123 118 117 119 120 121 120 116 108 101 97 106 114 123 132 137 138 139 139 139 135 131 107 39 46 49 49 66
193 133 95 78 123 110 117 113 109 109 111 116 117 114 120 121 121 122 125 125 119 113 109 107 105 99 95 103 107 118 131 145 151 155 155 156 156 155 150 139 103 34 30 49
257 141 159 145 112 106 114 113 108 108 110 113 117 119 124 125 126 125 122 118 107 99 98 101 100 89 82 99 110 121 133 147 154 157 158 157 154 151 152 146 134 118 71 39
108 116 117 119 115 116 120 120 121 122 121 119 115 115 118 117 114 111 109 111 111 109 107 102 99 92 97 100 100 106 127 138 138 140 142 139 141 145 153 151 143 140 153 162
132 147 137 124 120 118 122 129 132 130 124 122 121 117 115 113 110 107 106 106 111 115 112 109 114 124 106 105 113 127 130 131 118 116 131 138 143 155 160 158 162 165 187 182
142 143 139 135 127 116 108 113 120 120 123 122 118 113 118 122 126 128 123 110 100 92 86 95 101 95 86 88 104 119 133 147 140 139 136 136 143 150 154 155 162 166 174 156
113 110 108 106 110 114 113 110 112 113 118 118 119 121 123 124 128 127 122 116 117 117 142 46 93 98 85 67 90 109 122 130 131 128 136 135 127 130 136 138 142 150 153 141
110 109 106 101 104 112 122 124 117 116 126 121 117 114 111 116 120 119 115 120 145 181 190 127 107 97 83 42 92 122 134 135 132 127 115 116 125 126 127 130 135 140 143 145
118 119 119 115 113 112 118 119 117 117 120 119 120 123 125 127 124 124 120 121 238 163 130 122 117 105 56 57 105 122 128 131 131 134 136 136 130 129 131 134 141 149 152 156
124 131 130 125 120 114 111 112 115 118 119 119 122 126 128 126 124 119 128 161 189 158 135 136 146 123 67 96 113 121 125 131 133 132 129 130 129 129 134 143 150 156 152 152
103 119 120 123 125 121 108 114 123 126 126 131 137 140 141 144 146 144 163 213 181 151 137 161 182 133 101 101 108 113 114 128 133 136 138 138 140 142 147 149 149 142 138 140
89 92 102 109 111 108 109 117 120 124 128 131 138 142 140 133 129 160 167 167 165 151 148 170 157 118 107 104 114 113 114 122 127 126 128 133 134 131 134 133 130 125 126 125
92 88 89 96 101 114 128 123 113 114 116 117 123 130 138 147 158 169 155 157 159 150 156 176 157 131 103 108 125 122 123 133 130 124 124 127 127 125 127 130 132 135 136 138
96 99 104 115 128 133 131 126 126 134 130 128 135 144 142 140 142 144 148 156 167 171 172 176 163 145 120 118 121 122 127 132 121 118 127 134 137 137 136 136 137 148 154 154
89 90 86 75 76 107 120 132 141 148 151 153 157 167 157 149 146 152 153 154 159 163 160 154 149 144 136 133 124 110 114 122 124 125 127 131 135 139 142 143 150 150 145 138
Height
1503 1498 1496 1497 1496 1496 1504 1512 1521 1519 1517 1511 1508 1509 1512 1515 1518 1521 1524 1526 1528 1530 1532 1534 1535 1536 1537 1538 1538 1538 1538 1538 1538 1538 1538 1538 1538 1538 1537 1537 1536 1535 1534 1534
1503 1495 1494 1495 1493 1493 1495 1498 1504 1507 1510 1501 1504 1507 1511 1514 1517 1520 1522 1524 1526 1528 1530 1532 1534 1535 1535 1536 1537 1537 1537 1537 1537 1537 1537 1537 1537 1537 1536 1536 1535 1534 1533 1533
1515 1503 1499 1507 1494 1491 1493 1492 1496 1506 1503 1499 1504 1506 1509 1512 1515 1518 1520 1522 1525 1527 1529 1530 1532 1533 1534 1534 1535 1535 1536 1536 1536 1536 1536 1536 1536 1536 1535 1535 1534 1533 1533 1532
1518 1512 1521 1505 1485 1484 1487 1489 1489 1491 1493 1495 1499 1503 1506 1510 1513 1516 1518 1521 1523 1526 1527 1529 1530 1531 1532 1534 1534 1534 1535 1535 1535 1535 1535 1535 1535 1535 1534 1534 1533 1533 1532 1532
1523 1523 1514 1496 1485 1484 1490 1495 1490 1491 1494 1497 1500 1505 1509 1511 1512 1514 1517 1520 1522 1524 1526 1527 1529 1531 1532 1532 1533 1533 1534 1534 1534 1534 1534 1534 1534 1533 1533 1533 1532 1532 1531 1531
1519 1520 1521 1502 1484 1480 1485 1501 1491 1490 1494 1497 1499 1509 1511 1510 1512 1514 1517 1519 1521 1523 1525 1527 1528 1530 1531 1531 1532 1532 1532 1532 1533 1533 1533 1533 1533 1532 1532 1532 1532 1531 1531 1530
1515 1517 1508 1490 1482 1481 1501 1503 1491 1490 1491 1494 1496 1499 1504 1507 1511 1513 1516 1519 1520 1522 1524 1526 1528 1529 1530 1530 1530 1531 1531 1532 1532 1532 1532 1532 1532 1531 1531 1531 1531 1530 1530 1529
1513 1517 1511 1485 1482 1487 1489 1486 1488 1489 1491 1493 1495 1499 1503 1507 1510 1512 1515 1517 1519 1521 1523 1525 1527 1528 1529 1529 1530 1530 1530 1530 1530 1531 1531 1531 1531 1530 1530 1530 1530 1529 1529 1528
1502 1502 1490 1484 1484 1483 1482 1484 1486 1488 1492 1493 1496 1500 1503 1507 1510 1512 1515 1517 1519 1520 1523 1524 1526 1527 1528 1528 1529 1529 1529 1529 1529 1530 1530 1530 1529 1529 1529 1529 1528 1528 1528 1527
1495 1491 1487 1485 1484 1483 1482 1483 1486 1488 1491 1493 1497 1501 1504 1507 1509 1512 1515 1517 1519 1520 1522 1523 1525 1526 1527 1528 1528 1528 1528 1529 1529 1529 1529 1529 1529 1528 1528 1528 1527 1527 1526 1526
1493 1490 1487 1487 1485 1485 1485 1485 1487 1490 1492 1493 1496 1501 1504 1507 1510 1512 1516 1517 1518 1520 1521 1523 1524 1526 1526 1527 1527 1527 1528 1528 1528 1528 1528 1528 1528 1528 1527 1527 1527 1526 1526 1525
1493 1487 1488 1488 1487 1485 1486 1487 1488 1491 1493 1496 1497 1501 1504 1508 1511 1513 1515 1517 1518 1520 1521 1523 1524 1525 1525 1526 1526 1527 1527 1527 1527 1527 1527 1527 1527 1527 1526 1526 1526 1525 1525 1525
1487 1486 1486 1487 1487 1486 1487 1488 1489 1492 1493 1496 1500 1503 1506 1509 1511 1513 1515 1517 1518 1520 1521 1522 1523 1524 1524 1525 1525 1525 1525 1526 1526 1526 1526 1526 1526 1526 1526 1526 1525 1525 1524 1524
1485 1485 1485 1486 1487 1487 1488 1489 1491 1494 1496 1498 1501 1504 1506 1509 1512 1513 1515 1517 1518 1519 1520 1521 1522 1523 1523 1524 1524 1524 1525 1525 1525 1525 1525 1525 1525 1525 1525 1524 1524 1524 1524 1523
1483 1483 1484 1485 1486 1487 1488 1489 1492 1495 1498 1500 1503 1504 1507 1509 1511 1513 1515 1516 1518 1519 1520 1521 1521 1522 1522 1523 1523 1523 1523 1524 1524 1524 1524 1524 1524 1524 1524 1524 1523 1523 1523 1522
1483 1484 1485 1485 1486 1488 1489 1490 1492 1495 1498 1501 1503 1505 1507 1509 1511 1513 1515 1516 1517 1518 1519 1520 1520 1521 1521 1521 1521 1522 1522 1522 1522 1522 1522 1522 1522 1523 1523 1523 1522 1522 1522 1522
1483 1484 1484 1484 1484 1486 1489 1492 1493 1494 1498 1501 1503 1505 1508 1509 1511 1513 1514 1516 1517 1518 1518 1519 1519 1520 1520 1520 1520 1520 1520 1521 1521 1521 1521 1521 1521 1521 1522 1522 1522 1522 1521 1521
1483 1482 1482 1482 1483 1486 1491 1493 1494 1494 1497 1500 1503 1505 1508 1508 1510 1512 1514 1515 1516 1517 1517 1518 1518 1518 1518 1518 1519 1519 1519 1519 1519 1519 1519 1519 1520 1520 1521 1521 1521 1521 1521 1520
1482 1483 1484 1484 1485 1487 1491 1493 1494 1495 1498 1501 1503 1505 1507 1509 1511 1512 1513 1515 1515 1516 1516 1517 1517 1517 1517 1517 1517 1518 1518 1518 1518 1518 1518 1519 1519 1519 1519 1520 1519 1519 1520 1520
1483 1485 1487 1487 1488 1490 1492 1494 1495 1496 1498 1501 1502 1505 1506 1509 1511 1512 1513 1514 1515 1515 1516 1516 1517 1517 1517 1517 1517 1517 1517 1517 1517 1517 1518 1518 1518 1518 1518 1518 1518 1519 1519 1519
1485 1487 1488 1489 1491 1492 1493 1494 1496 1496 1498 1501 1502 1504 1507 1509 1511 1512 1513 1513 1514 1515 1515 1516 1516 1516 1516 1516 1516 1516 1516 1516 1516 1517 1517 1517 1517 1517 1517 1518 1518 1518 1518 1517
1485 1487 1488 1490 1491 1492 1494 1496 1497 1499 1500 1502 1503 1505 1507 1508 1510 1511 1513 1514 1514 1514 1514 1514 1515 1515 1515 1515 1515 1515 1515 1516 1516 1516 1517 1516 1516 1516 1517 1517 1517 1517 1516 1516
1486 1487 1489 1491 1492 1494 1496 1498 1499 1500 1501 1503 1504 1506 1507 1508 1510 1511 1512 1513 1513 1513 1513 1514 1514 1514 1515 1515 1515 1515 1515 1515 1516 1516 1516 1516 1516 1516 1516 1516 1516 1515 1515 1515
1488 1488 1490 1492 1493 1495 1496 1498 1500 1501 1502 1503 1505 1506 1507 1508 1509 1510 1511 1512 1512 1512 1512 1513 1514 1514 1514 1514 1515 1515 1515 1515 1515 1515 1515 1515 1515 1515 1515 1515 1515 1514 1514 1513
1489 1490 1491 1493 1494 1495 1497 1498 1500 1501 1502 1503 1504 1505 1506 1507 1508 1509 1510 1510 1511 1511 1512 1512 1513 1513 1514 1514 1514 1514 1514 1514 1515 1515 1514 1515 1515 1514 1514 1514 1513 1513 1512 1512
1490 1492 1493 1494 1495 1496 1497 1498 1499 1500 1501 1502 1504 1505 1506 1507 1507 1508 1509 1509 1510 1510 1511 1511 1512 1512 1513 1513 1513 1513 1513 1513 1514 1514 1514 1514 1514 1513 1513 1512 1512 1511 1510 1510
1492 1493 1494 1494 1495 1496 1497 1498 1499 1500 1501 1502 1503 1504 1505 1505 1506 1507 1507 1508 1509 1509 1510 1511 1511 1512 1512 1513 1513 1513 1513 1513 1513 1513 1513 1513 1512 1512 1511 1511 1510 1509 1508 1508